This is the latest recevied weather packets stored in our database for station/object KD2VWU. If no packets are shown the sender has not sent any weather packets the latest 10 day(s).
| Time | Temp. | Humidity | Pressure | Rain* | Wind** | Luminosity | Snow |
|---|---|---|---|---|---|---|---|
| 1777989289 | 18.33° C | 76% | 1008.1 hPa | 0 mm | - | - | - |
| 1777988985 | 17.78° C | 81% | 1008.1 hPa | 0 mm | - | - | - |
| 1777988682 | 17.78° C | 79% | 1008.3 hPa | 0 mm | - | - | - |
| 1777988379 | 17.22° C | 79% | 1007.8 hPa | 0 mm | - | - | - |
| 1777988076 | 16.67° C | 81% | 1007.8 hPa | 0 mm | - | - | - |
| 1777987772 | 16.11° C | 85% | 1007.7 hPa | 0 mm | - | - | - |
| 1777987469 | 15.56° C | 86% | 1007.9 hPa | 0 mm | - | - | - |
| 1777987166 | 15.56° C | 89% | 1007.7 hPa | 0 mm | - | - | - |
| 1777986863 | 15° C | 88% | 1007.7 hPa | 0 mm | - | - | - |
| 1777986561 | 14.44° C | 91% | 1007.5 hPa | 0 mm | - | - | - |
| 1777986259 | 13.89° C | 93% | 1007.9 hPa | 0 mm | - | - | - |
| 1777985955 | 13.33° C | 94% | 1007.8 hPa | 0 mm | - | - | - |
| 1777985653 | 13.33° C | 96% | 1007.8 hPa | 0 mm | - | - | - |
| 1777985349 | 12.78° C | 97% | 1007.7 hPa | 0 mm | - | - | - |
| 1777985047 | 12.78° C | 98% | 1007.7 hPa | 0 mm | - | - | - |
| 1777984743 | 12.22° C | 99% | 1007.7 hPa | 0 mm | - | - | - |
| 1777984439 | 12.22° C | 99% | 1007.3 hPa | 0 mm | - | - | - |
| 1777984135 | 12.22° C | 99% | 1007.4 hPa | 0 mm | - | - | - |
| 1777983833 | 12.22° C | 99% | 1007.4 hPa | 0 mm | - | - | - |
| 1777983529 | 11.67° C | 98% | 1007.3 hPa | 0 mm | - | - | - |
| 1777983226 | 11.67° C | 98% | 1007.7 hPa | 1.27 mm | - | - | - |
| 1777982922 | 11.67° C | 97% | 1007.3 hPa | 1.27 mm | - | - | - |
| 1777982618 | 11.67° C | 95% | 1007.5 hPa | 1.78 mm | - | - | - |
| 1777982317 | 12.22° C | 95% | 1008.3 hPa | 1.78 mm | - | - | - |
| 1777982014 | 12.22° C | 94% | 1007.8 hPa | 0 mm | - | - | - |
* Rain latest hour (hover to see other rain measurements)
** Current wind speed in m/s (hover to see current wind gust speed)